Location: *
(41.7492°S, 135.4150°W)
Time: 19:15:24
(UTC+00:00)

USA 306 - Pass Details

Date: 20 September 2021
Orbit: 564 x 573 km, 54.0° (Epoch: 24 September)

Event Time Altitude Azimuth Distance (km) Brightness Sun altitude
Exits shadow 13:31:00 22° 324° (NW) 1,284 4.3 -16.1°
Maximum altitude 13:33:41 68° 42° (NE) 627 3.1 -15.6°
Drops below altitude 10° 13:38:00 10° 125° (SE) 1,904 6.7 -14.8°
Sets 13:40:16 0° 127° (SE) 2,807 7.7 -14.4°
